Wetterdaten: Donnerstag, 11.12.2014
Datum Zeit Temp. A. Feuchte A. Luftdruck Regen Wind Richtung Richtung Sonnenschein ET UV Solar Taupunkt Windchill Windben Empfang
11.12.2014 00:00 0,1 C 81 % 1020,7 hPa 0,0 l/m 0,0 km/h (0 Bft) S 188 0 min 0,000 mm 0,0 UV-I 0 W/m -2,8 C 0,1 C 0,0 km/h (0 Bft) 0,00 %
11.12.2014 00:15 0,4 C 80 % 1020,5 hPa 0,0 l/m 0,0 km/h (0 Bft) S-SW 192 0 min 0,000 mm 0,0 UV-I 0 W/m -2,6 C 0,4 C 0,0 km/h (0 Bft) 0,00 %
11.12.2014 00:30 0,7 C 80 % 1020,6 hPa 0,0 l/m 0,0 km/h (0 Bft) S-SW 193 0 min 0,000 mm 0,0 UV-I 0 W/m -2,3 C 0,7 C 0,0 km/h (0 Bft) 0,00 %
11.12.2014 00:45 0,8 C 80 % 1020,7 hPa 0,0 l/m 0,0 km/h (0 Bft) S-SW 193 0 min 0,000 mm 0,0 UV-I 0 W/m -2,2 C 0,8 C 0,0 km/h (0 Bft) 0,00 %
11.12.2014 01:00 0,9 C 79 % 1020,4 hPa 0,0 l/m 0,0 km/h (0 Bft) S-SW 193 0 min 0,000 mm 0,0 UV-I 0 W/m -2,3 C 0,9 C 0,0 km/h (0 Bft) 0,00 %
11.12.2014 01:15 0,9 C 79 % 1020,0 hPa 0,0 l/m 0,0 km/h (0 Bft) S 173 0 min 0,000 mm 0,0 UV-I 0 W/m -2,3 C 0,9 C 0,0 km/h (0 Bft) 0,00 %
11.12.2014 01:30 1,0 C 79 % 1020,0 hPa 0,0 l/m 0,0 km/h (0 Bft) W-SW 251 0 min 0,000 mm 0,0 UV-I 0 W/m -2,2 C 1,0 C 0,0 km/h (0 Bft) 0,00 %
11.12.2014 01:45 1,0 C 79 % 1019,9 hPa 0,0 l/m 0,0 km/h (0 Bft) N-NW 343 0 min 0,000 mm 0,0 UV-I 0 W/m -2,2 C 1,0 C 0,0 km/h (0 Bft) 0,00 %
11.12.2014 02:00 0,9 C 80 % 1020,0 hPa 0,3 l/m 0,0 km/h (0 Bft) N-NW 343 0 min 0,000 mm 0,0 UV-I 0 W/m -2,2 C 0,9 C 0,0 km/h (0 Bft) 0,00 %
11.12.2014 02:15 0,9 C 80 % 1019,7 hPa 0,0 l/m 0,0 km/h (0 Bft) N 355 0 min 0,000 mm 0,0 UV-I 0 W/m -2,2 C 0,9 C 0,0 km/h (0 Bft) 0,00 %
11.12.2014 02:30 0,8 C 80 % 1019,7 hPa 0,0 l/m 0,0 km/h (0 Bft) N 355 0 min 0,000 mm 0,0 UV-I 0 W/m -2,2 C 0,8 C 0,0 km/h (0 Bft) 0,00 %
11.12.2014 02:45 0,8 C 81 % 1019,4 hPa 0,3 l/m 0,0 km/h (0 Bft) N 355 0 min 0,000 mm 0,0 UV-I 0 W/m -2,1 C 0,8 C 0,0 km/h (0 Bft) 0,00 %
11.12.2014 03:00 0,9 C 81 % 1019,3 hPa 0,0 l/m 0,0 km/h (0 Bft) S 189 0 min 0,000 mm 0,0 UV-I 0 W/m -2,0 C 0,9 C 0,0 km/h (0 Bft) 0,00 %
11.12.2014 03:15 0,8 C 81 % 1019,2 hPa 0,0 l/m 0,0 km/h (0 Bft) S 189 0 min 0,000 mm 0,0 UV-I 0 W/m -2,1 C 0,8 C 0,0 km/h (0 Bft) 0,00 %
11.12.2014 03:30 0,8 C 81 % 1019,1 hPa 0,0 l/m 0,0 km/h (0 Bft) S 180 0 min 0,000 mm 0,0 UV-I 0 W/m -2,1 C 0,8 C 0,0 km/h (0 Bft) 0,00 %
11.12.2014 03:45 0,8 C 81 % 1018,9 hPa 0,3 l/m 0,0 km/h (0 Bft) S 183 0 min 0,000 mm 0,0 UV-I 0 W/m -2,1 C 0,8 C 0,0 km/h (0 Bft) 0,00 %
11.12.2014 04:00 0,9 C 82 % 1019,0 hPa 0,0 l/m 0,0 km/h (0 Bft) S 184 0 min 0,000 mm 0,0 UV-I 0 W/m -1,8 C 0,9 C 0,0 km/h (0 Bft) 0,00 %
11.12.2014 04:15 0,9 C 82 % 1018,8 hPa 0,0 l/m 0,0 km/h (0 Bft) S 178 0 min 0,000 mm 0,0 UV-I 0 W/m -1,8 C 0,9 C 0,0 km/h (0 Bft) 0,00 %
11.12.2014 04:30 0,9 C 82 % 1018,7 hPa 0,3 l/m 0,0 km/h (0 Bft) S 179 0 min 0,000 mm 0,0 UV-I 0 W/m -1,8 C 0,9 C 0,0 km/h (0 Bft) 0,00 %
11.12.2014 04:45 0,9 C 82 % 1018,7 hPa 0,0 l/m 0,0 km/h (0 Bft) S 179 0 min 0,000 mm 0,0 UV-I 0 W/m -1,8 C 0,9 C 0,0 km/h (0 Bft) 0,00 %
11.12.2014 05:00 0,9 C 82 % 1018,3 hPa 0,0 l/m 0,0 km/h (0 Bft) S 184 0 min 0,000 mm 0,0 UV-I 0 W/m -1,8 C 0,9 C 0,0 km/h (0 Bft) 0,00 %
11.12.2014 05:15 1,0 C 82 % 1018,2 hPa 0,0 l/m 0,0 km/h (0 Bft) S-SW 194 0 min 0,000 mm 0,0 UV-I 0 W/m -1,7 C 1,0 C 0,0 km/h (0 Bft) 0,00 %
11.12.2014 05:30 1,1 C 82 % 1018,0 hPa 0,0 l/m 0,0 km/h (0 Bft) N-NW 338 0 min 0,000 mm 0,0 UV-I 0 W/m -1,6 C 1,1 C 0,0 km/h (0 Bft) 0,00 %
11.12.2014 05:45 1,2 C 82 % 1017,9 hPa 0,0 l/m 0,0 km/h (0 Bft) S-SW 207 0 min 0,000 mm 0,0 UV-I 0 W/m -1,5 C 1,2 C 0,0 km/h (0 Bft) 0,00 %
11.12.2014 06:00 1,2 C 82 % 1017,8 hPa 0,3 l/m 0,0 km/h (0 Bft) S-SW 197 0 min 0,000 mm 0,0 UV-I 0 W/m -1,5 C 1,2 C 0,0 km/h (0 Bft) 0,00 %
11.12.2014 06:15 1,2 C 82 % 1017,8 hPa 0,0 l/m 0,0 km/h (0 Bft) O-SO 119 0 min 0,000 mm 0,0 UV-I 0 W/m -1,5 C 1,2 C 0,0 km/h (0 Bft) 0,00 %
11.12.2014 06:30 1,2 C 82 % 1017,6 hPa 0,0 l/m 0,0 km/h (0 Bft) S 175 0 min 0,000 mm 0,0 UV-I 0 W/m -1,5 C 1,2 C 0,0 km/h (0 Bft) 0,00 %
11.12.2014 06:45 1,2 C 82 % 1017,5 hPa 0,0 l/m 0,0 km/h (0 Bft) S 175 0 min 0,000 mm 0,0 UV-I 0 W/m -1,5 C 1,2 C 0,0 km/h (0 Bft) 0,00 %
11.12.2014 07:00 1,2 C 82 % 1017,6 hPa 0,0 l/m 0,0 km/h (0 Bft) S 176 0 min 0,000 mm 0,0 UV-I 0 W/m -1,5 C 1,2 C 0,0 km/h (0 Bft) 0,00 %
11.12.2014 07:15 1,2 C 82 % 1017,5 hPa 0,0 l/m 0,0 km/h (0 Bft) S 176 0 min 0,000 mm 0,0 UV-I 0 W/m -1,5 C 1,2 C 0,0 km/h (0 Bft) 0,00 %
11.12.2014 07:30 1,2 C 82 % 1017,3 hPa 0,0 l/m 0,0 km/h (0 Bft) S 183 0 min 0,000 mm 0,0 UV-I 0 W/m -1,5 C 1,2 C 0,0 km/h (0 Bft) 0,00 %
11.12.2014 07:45 1,2 C 82 % 1017,5 hPa 0,3 l/m 0,0 km/h (0 Bft) S 183 0 min 0,000 mm 0,0 UV-I 0 W/m -1,5 C 1,2 C 0,0 km/h (0 Bft) 0,00 %
11.12.2014 08:00 1,2 C 82 % 1017,6 hPa 0,0 l/m 0,0 km/h (0 Bft) S 183 0 min 0,000 mm 0,0 UV-I 0 W/m -1,5 C 1,2 C 0,0 km/h (0 Bft) 0,00 %
11.12.2014 08:15 1,2 C 82 % 1017,6 hPa 0,0 l/m 0,0 km/h (0 Bft) S 183 0 min 0,000 mm 0,0 UV-I 0 W/m -1,5 C 1,2 C 0,0 km/h (0 Bft) 0,00 %
11.12.2014 08:30 1,4 C 81 % 1017,7 hPa 0,0 l/m 0,0 km/h (0 Bft) S 183 0 min 0,000 mm 0,0 UV-I 1 W/m -1,5 C 1,4 C 0,0 km/h (0 Bft) 0,00 %
11.12.2014 08:45 1,7 C 82 % 1017,4 hPa 0,0 l/m 0,0 km/h (0 Bft) O-SO 103 0 min 0,000 mm 0,0 UV-I 19 W/m -1,0 C 1,7 C 0,0 km/h (0 Bft) 0,00 %
11.12.2014 09:00 2,4 C 86 % 1017,4 hPa 0,0 l/m 0,7 km/h (0 Bft) W-SW 252 0 min 0,000 mm 0,0 UV-I 16 W/m 0,3 C 2,4 C 4,0 km/h (1 Bft) 0,00 %
11.12.2014 09:15 3,0 C 85 % 1017,5 hPa 0,0 l/m 1,4 km/h (1 Bft) O 85 0 min 0,000 mm 0,0 UV-I 16 W/m 0,7 C 3,0 C 4,0 km/h (1 Bft) 0,00 %
11.12.2014 09:30 3,2 C 85 % 1017,2 hPa 0,0 l/m 0,0 km/h (0 Bft) O 88 0 min 0,000 mm 0,0 UV-I 12 W/m 0,9 C 3,2 C 0,0 km/h (0 Bft) 0,00 %
11.12.2014 09:45 3,4 C 83 % 1017,2 hPa 0,0 l/m 0,0 km/h (0 Bft) SO 144 0 min 0,000 mm 0,0 UV-I 23 W/m 0,8 C 3,4 C 0,0 km/h (0 Bft) 0,00 %
11.12.2014 10:00 3,6 C 83 % 1017,3 hPa 0,0 l/m 1,4 km/h (1 Bft) N 357 0 min 0,000 mm 1,0 UV-I 29 W/m 1,0 C 3,6 C 4,0 km/h (1 Bft) 0,00 %
11.12.2014 10:15 4,2 C 82 % 1017,3 hPa 0,0 l/m 0,4 km/h (0 Bft) SW 234 0 min 0,000 mm 1,0 UV-I 61 W/m 1,4 C 4,2 C 4,0 km/h (1 Bft) 0,00 %
11.12.2014 10:30 4,6 C 80 % 1017,1 hPa 0,0 l/m 4,7 km/h (1 Bft) NW 325 0 min 0,000 mm 1,0 UV-I 66 W/m 1,5 C 4,6 C 15,8 km/h (3 Bft) 0,00 %
11.12.2014 10:45 5,0 C 78 % 1016,8 hPa 0,0 l/m 1,8 km/h (1 Bft) S-SW 196 15 min 0,000 mm 1,0 UV-I 190 W/m 1,5 C 5,0 C 4,0 km/h (1 Bft) 0,00 %
11.12.2014 11:00 5,6 C 72 % 1016,5 hPa 0,0 l/m 4,7 km/h (1 Bft) SW 220 15 min 0,000 mm 1,0 UV-I 199 W/m 1,0 C 5,6 C 7,9 km/h (2 Bft) 0,00 %
11.12.2014 11:15 5,7 C 71 % 1016,4 hPa 0,0 l/m 5,4 km/h (1 Bft) W-SW 255 15 min 0,000 mm 1,0 UV-I 211 W/m 0,9 C 5,7 C 7,9 km/h (2 Bft) 0,00 %
11.12.2014 11:30 6,1 C 70 % 1016,1 hPa 0,0 l/m 5,8 km/h (2 Bft) W-SW 254 15 min 0,000 mm 1,0 UV-I 233 W/m 1,0 C 6,1 C 11,9 km/h (2 Bft) 0,00 %
11.12.2014 11:45 6,0 C 68 % 1015,7 hPa 0,0 l/m 0,7 km/h (0 Bft) SW 226 15 min 0,000 mm 1,0 UV-I 199 W/m 0,6 C 6,0 C 4,0 km/h (1 Bft) 0,00 %
11.12.2014 12:00 6,6 C 64 % 1015,4 hPa 0,0 l/m 2,9 km/h (1 Bft) SW 234 15 min 0,000 mm 1,0 UV-I 199 W/m 0,3 C 6,6 C 7,9 km/h (2 Bft) 0,00 %
11.12.2014 12:15 7,0 C 65 % 1015,6 hPa 0,0 l/m 1,8 km/h (1 Bft) NW 304 15 min 0,000 mm 1,0 UV-I 210 W/m 0,9 C 7,0 C 4,0 km/h (1 Bft) 0,00 %
11.12.2014 12:30 7,0 C 64 % 1015,5 hPa 0,0 l/m 2,9 km/h (1 Bft) N 351 15 min 0,000 mm 1,0 UV-I 220 W/m 0,7 C 7,0 C 4,0 km/h (1 Bft) 0,00 %
11.12.2014 12:45 7,4 C 62 % 1015,3 hPa 0,0 l/m 2,2 km/h (1 Bft) O 101 15 min 0,000 mm 1,0 UV-I 190 W/m 0,6 C 7,4 C 4,0 km/h (1 Bft) 0,00 %
11.12.2014 13:00 7,5 C 63 % 1015,1 hPa 0,0 l/m 4,0 km/h (1 Bft) W-NW 290 15 min 0,000 mm 1,0 UV-I 200 W/m 0,9 C 7,5 C 7,9 km/h (2 Bft) 0,00 %
11.12.2014 13:15 7,7 C 62 % 1015,0 hPa 0,0 l/m 2,2 km/h (1 Bft) SO 129 15 min 0,000 mm 1,0 UV-I 233 W/m 0,9 C 7,7 C 4,0 km/h (1 Bft) 0,00 %
11.12.2014 13:30 7,3 C 61 % 1014,8 hPa 0,0 l/m 1,8 km/h (1 Bft) S 175 0 min 0,000 mm 1,0 UV-I 128 W/m 0,3 C 7,3 C 4,0 km/h (1 Bft) 0,00 %
11.12.2014 13:45 7,0 C 61 % 1014,7 hPa 0,0 l/m 4,7 km/h (1 Bft) S 176 0 min 0,000 mm 1,0 UV-I 101 W/m 0,0 C 7,0 C 7,9 km/h (2 Bft) 0,00 %
11.12.2014 14:00 6,9 C 59 % 1014,8 hPa 0,0 l/m 3,2 km/h (1 Bft) S-SO 168 0 min 0,000 mm 1,0 UV-I 89 W/m -0,5 C 6,9 C 7,9 km/h (2 Bft) 0,00 %
11.12.2014 14:15 6,6 C 61 % 1014,7 hPa 0,0 l/m 0,7 km/h (0 Bft) W-SW 255 0 min 0,000 mm 1,0 UV-I 70 W/m -0,4 C 6,6 C 4,0 km/h (1 Bft) 0,00 %
11.12.2014 14:30 6,4 C 62 % 1014,6 hPa 0,0 l/m 5,8 km/h (2 Bft) O 92 0 min 0,000 mm 1,0 UV-I 67 W/m -0,3 C 6,4 C 11,9 km/h (2 Bft) 0,00 %
11.12.2014 14:45 6,2 C 63 % 1014,9 hPa 0,0 l/m 1,8 km/h (1 Bft) W 265 0 min 0,000 mm 1,0 UV-I 56 W/m -0,3 C 6,2 C 4,0 km/h (1 Bft) 0,00 %
11.12.2014 15:00 6,1 C 63 % 1014,8 hPa 0,0 l/m 0,7 km/h (0 Bft) S-SW 213 0 min 0,000 mm 0,0 UV-I 38 W/m -0,4 C 6,1 C 4,0 km/h (1 Bft) 0,00 %
11.12.2014 15:15 5,9 C 63 % 1014,5 hPa 0,0 l/m 4,3 km/h (1 Bft) NW 316 0 min 0,000 mm 0,0 UV-I 37 W/m -0,6 C 5,9 C 7,9 km/h (2 Bft) 0,00 %
11.12.2014 15:30 5,9 C 64 % 1014,7 hPa 0,0 l/m 3,2 km/h (1 Bft) W 259 0 min 0,000 mm 0,0 UV-I 22 W/m -0,4 C 5,9 C 7,9 km/h (2 Bft) 0,00 %
11.12.2014 15:45 5,6 C 65 % 1014,8 hPa 0,0 l/m 2,2 km/h (1 Bft) W-SW 256 0 min 0,000 mm 0,0 UV-I 23 W/m -0,4 C 5,6 C 4,0 km/h (1 Bft) 0,00 %
11.12.2014 16:00 5,3 C 66 % 1015,0 hPa 0,0 l/m 1,8 km/h (1 Bft) W-SW 238 0 min 0,000 mm 0,0 UV-I 0 W/m -0,5 C 5,3 C 4,0 km/h (1 Bft) 0,00 %
11.12.2014 16:15 5,4 C 63 % 1014,9 hPa 0,0 l/m 6,5 km/h (2 Bft) W-SW 256 0 min 0,000 mm 0,0 UV-I 0 W/m -1,1 C 5,3 C 11,9 km/h (2 Bft) 0,00 %
11.12.2014 16:30 5,5 C 63 % 1015,1 hPa 0,0 l/m 0,7 km/h (0 Bft) SO 125 0 min 0,000 mm 0,0 UV-I 0 W/m -1,0 C 5,5 C 4,0 km/h (1 Bft) 0,00 %
11.12.2014 16:45 5,3 C 64 % 1015,0 hPa 0,0 l/m 0,0 km/h (0 Bft) O-SO 104 0 min 0,000 mm 0,0 UV-I 0 W/m -0,9 C 5,3 C 0,0 km/h (0 Bft) 0,00 %
11.12.2014 17:00 5,2 C 64 % 1014,9 hPa 0,0 l/m 1,4 km/h (1 Bft) S-SO 157 0 min 0,000 mm 0,0 UV-I 0 W/m -1,0 C 5,2 C 4,0 km/h (1 Bft) 0,00 %
11.12.2014 17:15 5,2 C 64 % 1015,0 hPa 0,0 l/m 0,4 km/h (0 Bft) NW 312 0 min 0,000 mm 0,0 UV-I 0 W/m -1,0 C 5,2 C 4,0 km/h (1 Bft) 0,00 %
11.12.2014 17:30 5,3 C 63 % 1014,9 hPa 0,0 l/m 4,0 km/h (1 Bft) S 181 0 min 0,000 mm 0,0 UV-I 0 W/m -1,2 C 5,3 C 7,9 km/h (2 Bft) 0,00 %
11.12.2014 17:45 5,4 C 61 % 1014,6 hPa 0,0 l/m 2,9 km/h (1 Bft) N-NW 330 0 min 0,000 mm 0,0 UV-I 0 W/m -1,5 C 5,4 C 4,0 km/h (1 Bft) 0,00 %
11.12.2014 18:00 5,5 C 60 % 1014,2 hPa 0,0 l/m 0,7 km/h (0 Bft) S-SW 199 0 min 0,000 mm 0,0 UV-I 0 W/m -1,6 C 5,5 C 4,0 km/h (1 Bft) 0,00 %
11.12.2014 18:15 5,3 C 62 % 1014,6 hPa 0,0 l/m 0,4 km/h (0 Bft) N 351 0 min 0,000 mm 0,0 UV-I 0 W/m -1,4 C 5,3 C 4,0 km/h (1 Bft) 0,00 %
11.12.2014 18:30 5,3 C 62 % 1014,7 hPa 0,0 l/m 1,4 km/h (1 Bft) SW 234 0 min 0,000 mm 0,0 UV-I 0 W/m -1,4 C 5,3 C 4,0 km/h (1 Bft) 0,00 %
11.12.2014 18:45 5,2 C 62 % 1014,8 hPa 0,0 l/m 1,8 km/h (1 Bft) N-NW 329 0 min 0,000 mm 0,0 UV-I 0 W/m -1,5 C 5,2 C 4,0 km/h (1 Bft) 0,00 %
11.12.2014 19:00 4,9 C 62 % 1014,9 hPa 0,0 l/m 3,2 km/h (1 Bft) W-SW 254 0 min 0,000 mm 0,0 UV-I 0 W/m -1,8 C 4,9 C 4,0 km/h (1 Bft) 0,00 %
11.12.2014 19:15 5,0 C 62 % 1015,0 hPa 0,0 l/m 3,2 km/h (1 Bft) N 353 0 min 0,000 mm 0,0 UV-I 0 W/m -1,7 C 5,0 C 4,0 km/h (1 Bft) 0,00 %
11.12.2014 19:30 5,3 C 61 % 1014,9 hPa 0,0 l/m 1,8 km/h (1 Bft) NO 46 0 min 0,000 mm 0,0 UV-I 0 W/m -1,6 C 5,3 C 4,0 km/h (1 Bft) 0,00 %
11.12.2014 19:45 5,2 C 61 % 1014,5 hPa 0,0 l/m 0,0 km/h (0 Bft) W-NW 288 0 min 0,000 mm 0,0 UV-I 0 W/m -1,7 C 5,2 C 0,0 km/h (0 Bft) 0,00 %
11.12.2014 20:00 5,3 C 59 % 1015,1 hPa 0,0 l/m 4,3 km/h (1 Bft) S 172 0 min 0,000 mm 0,0 UV-I 0 W/m -2,0 C 5,3 C 11,9 km/h (2 Bft) 0,00 %
11.12.2014 20:15 6,1 C 56 % 1014,9 hPa 0,0 l/m 0,7 km/h (0 Bft) SO 132 0 min 0,000 mm 0,0 UV-I 0 W/m -2,0 C 6,1 C 4,0 km/h (1 Bft) 0,00 %
11.12.2014 20:30 6,2 C 57 % 1015,3 hPa 0,0 l/m 4,7 km/h (1 Bft) S-SO 147 0 min 0,000 mm 0,0 UV-I 0 W/m -1,7 C 6,2 C 11,9 km/h (2 Bft) 0,00 %
11.12.2014 20:45 6,1 C 58 % 1015,2 hPa 0,0 l/m 3,2 km/h (1 Bft) W-SW 243 0 min 0,000 mm 0,0 UV-I 0 W/m -1,5 C 6,1 C 4,0 km/h (1 Bft) 0,00 %
11.12.2014 21:00 6,0 C 58 % 1015,1 hPa 0,0 l/m 7,9 km/h (2 Bft) O 93 0 min 0,000 mm 0,0 UV-I 0 W/m -1,6 C 4,7 C 11,9 km/h (2 Bft) 0,00 %
11.12.2014 21:15 5,9 C 59 % 1015,2 hPa 0,0 l/m 11,5 km/h (2 Bft) S-SW 197 0 min 0,000 mm 0,0 UV-I 0 W/m -1,5 C 2,1 C 19,8 km/h (3 Bft) 0,00 %
11.12.2014 21:30 5,8 C 59 % 1015,2 hPa 0,0 l/m 3,2 km/h (1 Bft) W-NW 287 0 min 0,000 mm 0,0 UV-I 0 W/m -1,6 C 5,8 C 7,9 km/h (2 Bft) 0,00 %
11.12.2014 21:45 5,6 C 59 % 1015,5 hPa 0,0 l/m 4,7 km/h (1 Bft) NO 53 0 min 0,000 mm 0,0 UV-I 0 W/m -1,8 C 5,6 C 7,9 km/h (2 Bft) 0,00 %
11.12.2014 22:00 5,5 C 60 % 1015,4 hPa 0,0 l/m 6,5 km/h (2 Bft) W-SW 255 0 min 0,000 mm 0,0 UV-I 0 W/m -1,6 C 5,4 C 11,9 km/h (2 Bft) 0,00 %
11.12.2014 22:15 5,6 C 59 % 1015,3 hPa 0,0 l/m 0,4 km/h (0 Bft) O-SO 113 0 min 0,000 mm 0,0 UV-I 0 W/m -1,8 C 5,6 C 4,0 km/h (1 Bft) 0,00 %
11.12.2014 22:30 5,7 C 60 % 1015,3 hPa 0,0 l/m 0,7 km/h (0 Bft) O-SO 114 0 min 0,000 mm 0,0 UV-I 0 W/m -1,4 C 5,7 C 4,0 km/h (1 Bft) 0,00 %
11.12.2014 22:45 5,6 C 61 % 1015,3 hPa 0,0 l/m 0,0 km/h (0 Bft) N-NO 28 0 min 0,000 mm 0,0 UV-I 0 W/m -1,3 C 5,6 C 0,0 km/h (0 Bft) 0,00 %
11.12.2014 23:00 5,5 C 61 % 1015,4 hPa 0,0 l/m 0,4 km/h (0 Bft) S 176 0 min 0,000 mm 0,0 UV-I 0 W/m -1,4 C 5,5 C 4,0 km/h (1 Bft) 0,00 %
11.12.2014 23:15 5,6 C 59 % 1015,3 hPa 0,0 l/m 0,0 km/h (0 Bft) O-NO 60 0 min 0,000 mm 0,0 UV-I 0 W/m -1,8 C 5,6 C 0,0 km/h (0 Bft) 0,00 %
11.12.2014 23:30 5,6 C 59 % 1015,6 hPa 0,0 l/m 0,7 km/h (0 Bft) SO 129 0 min 0,000 mm 0,0 UV-I 0 W/m -1,8 C 5,6 C 4,0 km/h (1 Bft) 0,00 %
11.12.2014 23:45 5,7 C 58 % 1015,6 hPa 0,0 l/m 8,3 km/h (2 Bft) W-SW 253 0 min 0,000 mm 0,0 UV-I 0 W/m -1,9 C 4,1 C 11,9 km/h (2 Bft) 0,00 %
_ Min-Zeit 00:00 20:15 18:00 - 00:00 - - - - - - 00:00 00:00 00:00 00:00
Minimum _ 0,1 C 56 % 1014,2 hPa - 0,0 km/h (0 Bft) - - - - - - -2,8 C 0,1 C 0,0 km/h (0 Bft) 0,00 %
_ Max-Zeit 13:15 09:00 00:00 02:00 21:15 - - 10:45 00:00 10:00 11:30 10:45 13:15 21:15 00:00
Maximum _ 7,7 C 86 % 1020,7 hPa 0,3 l/m 11,5 km/h
S-SW (2 Bft)
- - 15 min 0,000 mm 1,0 UV-I 233 W/m 1,5 C 7,7 C 19,8 km/h
S-SW (3 Bft)
0,00 %
Durchschnitt _ 3,9 C 71 % 1016,6 hPa #1,8 l/m 1,7 km/h (1 Bft) W-SW - #2:45 h #0,000 mm 1,0 UV-I 105 W/m -1,1 C 3,8 C 3,7 km/h (1 Bft) 0,00 %